Regional Weather Roundup
Issued by NWS

Home | Current Version | Previous Version | Graphics & Text | Print | Product List | Glossary On
Versions: 1 2 3 4 5 6 7 8 9 10 11 12 13 14 15 16 17 18 19 20 21 22 23 24 25 26 27 28 29 30 31 32 33 34 35 36 37 38 39 40 41 42 43 44 45 46 47 48 49 50
000
ASUS43 KLOT 300506
RWRIL

ILLINOIS REGIONAL WEATHER ROUNDUP
NATIONAL WEATHER SERVICE CHICAGO/ROMEOVILLE IL
1200 AM CDT THU OCT 30 2014

NOTE: "FAIR" INDICATES FEW OR NO CLOUDS BELOW 12,000 FEET WITH NO
SIGNIFICANT WEATHER AND/OR OBSTRUCTIONS TO VISIBILITY.

* THESE STATIONS ARE NOT UNDER NWS QUALITY CONTROL. THEY ALSO MAY NOT
  REPORT WEATHER SUCH AS PRECIPITATION OR FOG.

ILZ001-002-007-009-015-016-024-300600-
NORTHWEST ILLINOIS

CITY           SKY/WX    TMP DP  RH WIND       PRES   REMARKS
MOLINE         CLEAR     33  29  85 CALM      30.14F
STERLING*      CLEAR     34  27  75 CALM      30.14F
SAVANNA*       CLEAR     32  30  93 CALM      30.14F
$$

ILZ003-004-008-010-011-017-018-300600-
NORTH CENTRAL ILLINOIS

CITY           SKY/WX    TMP DP  RH WIND       PRES   REMARKS
ROCKFORD       CLEAR     34  30  85 CALM      30.15S
FREEPORT*      CLEAR     29  27  91 SW3       30.15S
ROCHELLE*      CLEAR     28  27  95 CALM      30.14S
DE KALB*       CLEAR     34  30  85 W5        30.14S WCI  30
PERU*          CLEAR     37  32  82 CALM      30.15S
$$

ILZ005-006-012>014-019>023-300600-
NORTHEAST ILLINOIS

CITY           SKY/WX    TMP DP  RH WIND       PRES   REMARKS
CHICAGO-OHARE  CLEAR     38  32  79 W5        30.13S WCI  34
CHICAGO-MIDWAY CLEAR     43  33  68 CALM      30.13S
AURORA         CLEAR     30  26  85 NW3       30.14S
LANSING*       CLEAR     36  33  87 CALM      30.14S
JOLIET*        CLEAR     32  31  96 CALM      30.14S
WAUKEGAN       CLEAR     34  30  85 W3        30.13R
DUPAGE AIRPORT CLEAR     34  29  82 CALM      30.13S
KANKAKEE*      CLEAR     35  34  95 CALM      30.15S
WHEELING       CLEAR     37  31  78 CALM      30.15S
MORRIS*        CLEAR     32  31  96 SW3       30.14R
ROMEOVILLE*    CLEAR     35  32  88 W3        30.14R
NORTHERLY ISL    N/A     46  31  56 W5          N/A
$$

LMZ740>746-300600-
SOUTHERN LAKE MICHIGAN

STATION/POSITION SKY/WX   TEMP    WIND        PRES    VSBY  WAVE
                          AIR SEA DIR/SP/G                  HT/PER
                          (F)     (DEG/KT/KT) (MB)    (MI)  (FT/S)
SOUTHERN BUOY              47 53  280/  4/  6 1020.2F         2/ 5
WAUKEGAN HARBOR            43     270/  6/  7   N/A
HARRISON CRIB              47     320/  3/  4   N/A
BURNHAM HARBOR             46     260/  4/  6   N/A
CALUMET HARBOR             44     230/  3/  4 1019.0F
MICHIGAN CITY              47     160/  3/  4   N/A
$$

ILZ025>027-034>036-040-047-049-050-058-095>099-300600-
WEST-CENTRAL ILLINOIS

CITY           SKY/WX    TMP DP  RH WIND       PRES   REMARKS
QUINCY         CLEAR     41  33  73 SE5       30.15F
GALESBURG*     CLEAR     32  31  97 CALM      30.14F FOG
MACOMB*        CLEAR     32  30  94 CALM      30.18S
JACKSONVILLE*  CLEAR     40  36  87 CALM      30.16S
PITTSFIELD*    CLEAR     37  34  90 CALM      30.17S
$$

ILZ028>032-037-038-041>044-048-051>054-059>061-300600-
CENTRAL ILLINOIS

CITY           SKY/WX    TMP DP  RH WIND       PRES   REMARKS
PONTIAC        CLEAR     33  32  95 CALM      30.16S
BLOOMINGTON    CLEAR     37  34  89 SW3       30.16S
DECATUR        FAIR      37  33  85 CALM      30.16S
PEORIA         CLEAR     38  32  79 CALM      30.15F
LACON*         CLEAR     32  29  90 CALM      30.14S
LINCOLN*       CLEAR     36  33  89 CALM      30.16S
SPRINGFIELD    CLEAR     36  33  89 CALM      30.17S
TAYLORVILLE    CLEAR     37  34  87 SE3       30.16S
$$

ILZ033-039-045-046-055>057-062-063-300600-
EAST-CENTRAL ILLINOIS

CITY           SKY/WX    TMP DP  RH WIND       PRES   REMARKS
CHAMPAIGN      CLEAR     36  32  85 CALM      30.16S
DANVILLE*      CLEAR     38  33  84 CALM      30.13S
RANTOUL*       CLEAR     37  34  89 CALM      30.16R
MATTOON        CLEAR     38  35  89 CALM      30.15F
PARIS*         CLEAR     34  33  96 CALM      30.16F
$$

ILZ079-100>102-300600-
SOUTHWEST ILLINOIS

CITY           SKY/WX    TMP DP  RH WIND       PRES   REMARKS
ALTON          CLEAR     38  36  92 CALM      30.16F
BELLEVILLE     CLEAR     39  37  92 CALM      30.16S
CAHOKIA*       CLEAR     39  36  89 CALM      30.17S
SPARTA*        CLEAR     42  37  81 CALM      30.18S
$$

ILZ064>066-069>071-074>076-080>082-084>086-088>090-092>094-300600-
SOUTH-CENTRAL ILLINOIS

CITY           SKY/WX    TMP DP  RH WIND       PRES   REMARKS
CARBONDALE     CLEAR     38  36  92 CALM      30.17S
CAIRO*         CLEAR     43  37  79 CALM      30.16F
EFFINGHAM*     CLEAR     38  34  87 CALM      30.17S
MARION         CLEAR     39  37  93 CALM      30.17S
MT. VERNON     CLEAR     37  30  75 CALM      30.17S
CENTRALIA*     CLEAR     38  36  92 CALM      30.16S
SALEM*         CLEAR     40  39  94 CALM      30.17S
METROPOLIS*    CLEAR     41  41 100 CALM      30.16S
$$

ILZ067-068-072-073-078-083-087-091-300600-
SOUTHEAST ILLINOIS

CITY           SKY/WX    TMP DP  RH WIND       PRES   REMARKS
LAWRENCEVILLE  CLEAR     44  32  62 CALM      30.17S
FLORA*         CLEAR     40  37  89 CALM      30.17S
FAIRFIELD*     CLEAR     38  37  93 CALM      30.16S
HARRISBURG*    CLEAR     41  39  92 CALM      30.17F
ROBINSON*      CLEAR     38  37  96 CALM      30.18S
CARMI*         CLEAR     40  39  98 CALM      30.16F
$$

ABBREVIATIONS USED IN REMARKS
   TC - TEMPERATURE IN CELSIUS
  WCI - WIND CHILL INDEX
   HX - HEAT INDEX
  VSB - VISIBILITY
$$




USA.gov is the U.S. government's official web portal to all federal, state and local government web resources and services.